Starlink 3366

operational
NORAD ID: 51104 Int'l Des: 2022-005 Owner: SPXS Country: US Constellation: starlink
LEOCIRCULAR

About Starlink 3366

Description loading...

Live Position

Loading 3D Globe...

Upcoming Passes

Altitude History

Altitude vs Time

uPlot chart will show altitude changes over time

Two-Line Element Set

1 51104U 22005A 25302.84914727 .00000043 00000-0 20811-4 0 9997
2 51104 53.2161 156.4871 0001467 86.5784 273.5376 15.08840601209129
Epoch: Oct 29, 2025 • Age: 28 hours

Current Status

Altitude 551.3 km
Velocity 7.59 km/s
Sub-Earth Point -34.29°S, 69.14°E
Launch Date Jan 19, 2022
Age 3.7 years
Type internet

Technical Details

Classification Payload
Mass 297.00 kg
Dry Mass 275.00 kg
Total Mass 297.00 kg
Length 0.20 m
Diameter 2.80 m
Span 9.00 m
Shape Box + pan
Manufacturer SPXS
Bus Type Starlink
Phase Status In Orbit
Owner/State SPXS/US

Large Constellations

Loading constellations...